[[{"header":{"parameterUnit":"m.s-1","parameterCategory":1,"la1":30.2991,"la2":30.254,"lo1":-89.0895,"lo2":-89.0444,"dy":0.0017,"dx":0.0017,"nx":28,"ny":28,"refTime":"2025-08-20T09:00:00:Z","depth":0,"parameterNumber":2,"parameterNumberName":"U-component_of_WINDS"},"data":[0,0,0,0,0,0,0,0,0,0,0,0,0,0,0,0,0,0,0,0,0,0,0,0,0,0,0,0,0,0,0,0,0,0,0,0,0,0,0,0,0,0,0,0,0,0,0,0,0,0,0,0,0,0,0,0,0,0,-1.3994,-1.3995,0,-1.4083,-1.4084,-1.4085,-1.4064,-1.4062,-1.4061,-1.4059,-1.4151,-1.4154,-1.4158,0,0,0,0,0,0,0,0,0,0,0,0,0,-1.3807,-1.381,-1.3994,-1.3995,-1.3996,-1.4083,-1.4084,-1.4086,-1.4064,-1.4062,-1.406,-1.4058,-1.4149,-1.4154,-1.4159,0,0,0,0,0,0,0,0,0,0,0,0,0,-1.3891,-1.3812,-1.3994,-1.3996,-1.3997,-1.4083,-1.4084,-1.4086,-1.4065,-1.4062,-1.406,-1.4057,-1.4148,-1.4154,-1.4159,-1.4248,0,0,-1.4178,-1.4181,0,0,0,0,0,0,0,0,-1.3886,-1.3898,-1.3995,-1.3996,-1.3998,-1.406,-1.4052,-1.414,-1.4066,-1.4039,-1.4059,-1.4056,-1.4123,-1.413,-1.4153,-1.4252,-1.4256,-1.4178,-1.4182,-1.4185,-1.4186,0,0,0,0,0,0,0,-1.3881,-1.3894,-1.4029,-1.3996,-1.3998,-1.3993,-1.4002,-1.4068,-1.4094,-1.4041,-1.404,-1.4051,-1.4123,-1.4147,-1.4155,-1.4258,-1.4178,-1.4184,-1.4187,-1.419,-1.4436,-1.4439,0,0,0,0,0,0,-1.3874,-1.3889,-1.4027,-1.4032,-1.3935,-1.3999,-1.4009,-1.4043,-1.4093,-1.4099,-1.4053,-1.405,-1.4138,-1.4148,-1.4158,-1.4265,-1.4185,-1.419,-1.4194,-1.4433,-1.4436,-1.444,0,0,0,0,0,0,-1.387,-1.3886,-1.4023,-1.3961,-1.3978,-1.4005,-1.4043,-1.4046,-1.407,-1.4102,-1.4107,-1.4073,-1.4136,-1.4149,-1.4226,-1.4268,-1.4193,-1.4199,-1.4429,-1.4434,-1.4438,-1.4481,0,0,0,0,0,0,-1.3864,-1.3885,-1.3918,-1.3961,-1.3981,-1.4089,-1.4045,-1.4049,-1.408,-1.4077,-1.4122,-1.4127,-1.4135,-1.4217,-1.4232,-1.4275,-1.4203,-1.4426,-1.4431,-1.4437,-1.4476,-1.4486,-1.4495,0,0,0,0,0,-1.3858,-1.3927,-1.392,-1.3937,-1.4024,-1.4092,-1.4103,-1.4111,-1.4084,-1.4118,-1.4139,-1.4126,-1.4262,-1.4225,-1.4242,-1.4287,-1.4423,-1.443,-1.4436,-1.4472,-1.4484,-1.4495,0,0,0,0,0,0,-1.3887,-1.3932,-1.3925,-1.401,-1.4048,-1.4088,-1.4131,-1.4124,-1.4169,-1.4164,-1.4172,-1.4183,-1.4261,-1.4282,-1.4241,-1.4377,-1.4338,-1.4349,-1.436,-1.4372,-1.4381,-1.4374,-1.4208,0,0,0,0,0,-1.3904,-1.3955,-1.3992,-1.4063,-1.4083,-1.4104,-1.4134,-1.4137,-1.4176,-1.4191,-1.4218,-1.4256,-1.4307,-1.4341,-1.439,-1.4479,-1.4489,-1.4519,-1.4529,-1.4536,-1.4545,-1.4594,-1.4608,-1.4461,-1.4461,-1.4461,0,0,-1.3938,-1.3969,-1.4001,-1.407,-1.4099,-1.4153,-1.4117,-1.4175,-1.4215,-1.42,-1.4274,-1.4295,-1.4339,-1.4422,-1.446,-1.4442,-1.4588,-1.4545,-1.4551,-1.4555,-1.4602,-1.4616,-1.4628,-1.4465,-1.4465,-1.4464,0,0,-1.4028,-1.4057,-1.412,-1.415,-1.4195,-1.4209,-1.4224,-1.4266,-1.428,-1.4354,-1.4344,-1.4392,-1.4481,-1.4512,-1.454,-1.4643,-1.4633,-1.4659,-1.4709,-1.4757,-1.4769,-1.4779,-1.4816,-1.4829,-1.4668,-1.4668,-1.4668,0,-1.4065,-1.4145,-1.4153,-1.4212,-1.4243,-1.4233,-1.4297,-1.4326,-1.4384,-1.4406,-1.4385,-1.4496,-1.4525,-1.4616,-1.4641,-1.4664,-1.4682,-1.4654,-1.4766,-1.4777,-1.4787,-1.4822,-1.4836,-1.4671,-1.467,-1.467,-1.467,0,-1.4188,-1.4244,-1.429,-1.4347,-1.4383,-1.4444,-1.4462,-1.4498,-1.4499,-1.4515,-1.4592,-1.4626,-1.4682,-1.4704,-1.4705,-1.4795,-1.4783,-1.4764,-1.4726,-1.4803,-1.4837,-1.485,-1.4675,-1.4674,-1.4673,-1.4672,0,0,-1.4297,-1.436,-1.4376,-1.4402,-1.4452,-1.4495,-1.4557,-1.4612,-1.4642,-1.4684,-1.4736,-1.4811,-1.4795,-1.4826,-1.4831,-1.4873,-1.4954,-1.4849,-1.4851,-1.4867,-1.5056,-1.5069,-1.5085,-1.4947,-1.495,-1.4952,-1.5052,0,-1.4391,-1.4499,-1.4509,-1.4606,-1.4658,-1.465,-1.4704,-1.474,-1.4758,-1.4805,-1.4825,-1.4878,-1.4852,-1.4871,-1.4913,-1.4935,-1.4991,-1.4928,-1.4996,-1.4998,-1.4984,-1.5102,-1.5116,-1.5208,-1.5065,-1.5068,-1.5069,0,-1.4515,-1.456,-1.4663,-1.4706,-1.4728,-1.4776,-1.4828,-1.4873,-1.4915,-1.4925,-1.4961,-1.496,-1.5024,-1.4984,-1.5073,-1.5029,-1.5058,-1.5073,-1.5077,-1.5083,-1.5038,-1.5111,-1.5238,-1.5252,-1.509,-1.5088,-1.5087,0,-1.4584,-1.4671,-1.4744,-1.4766,-1.4819,-1.4853,-1.4876,-1.4915,-1.4948,-1.4994,-1.5015,-1.5068,-1.5097,-1.5138,-1.5151,-1.5121,-1.5239,-1.5201,-1.5249,-1.5249,-1.5273,-1.5272,-1.5407,-1.5293,-1.5293,-1.5293,-1.5293,0,-1.4687,-1.475,-1.4775,-1.482,-1.4891,-1.4902,-1.4971,-1.4993,-1.5029,-1.5078,-1.5074,-1.512,-1.5136,-1.5185,-1.5197,-1.5268,-1.5281,-1.5291,-1.5293,-1.5291,-1.529,-1.5309,-1.5303,-1.5297,-1.5296,-1.5295,-1.5294,0,-1.4775,-1.4795,-1.4874,-1.4917,-1.493,-1.498,-1.5018,-1.5061,-1.5079,-1.5141,-1.5156,-1.5184,-1.5241,-1.526,-1.5329,-1.5337,-1.542,-1.5417,-1.5406,-1.5406,-1.5454,-1.5449,-1.5606,-1.5627,-1.55,-1.5501,-1.5502,0,-1.484,-1.4888,-1.4937,-1.497,-1.4995,-1.5048,-1.5082,-1.5095,-1.5131,-1.5183,-1.522,-1.5277,-1.5323,-1.5416,-1.5443,-1.5496,-1.5494,-1.5545,-1.5502,-1.5498,-1.5494,-1.5491,-1.5496,-1.5553,-1.5554,-1.5555,-1.5556,0,-1.4951,-1.4959,-1.5008,-1.5061,-1.5101,-1.5144,-1.5184,-1.5211,-1.5231,-1.5271,-1.533,-1.5366,-1.5438,-1.5495,-1.555,-1.5574,-1.5569,-1.557,-1.5584,-1.5582,-1.5573,-1.5578,-1.5428,-1.5566,-1.5565,-1.5564,-1.5564,-1.5563,-1.5029,-1.5072,-1.5114,-1.5169,-1.5201,-1.5239,-1.5283,-1.5306,-1.5356,-1.5415,-1.542,-1.5484,-1.5526,-1.5599,-1.5627,-1.5677,-1.5663,-1.5683,-1.5688,-1.5693,-1.5696,-1.5566,-1.5687,-1.5687,-1.5687,-1.5687,-1.5687,0,-1.514,-1.5167,-1.5217,-1.5275,-1.5319,-1.5311,-1.5356,-1.5392,-1.5449,-1.5489,-1.5535,-1.5603,-1.5659,-1.569,-1.5746,-1.5781,-1.578,-1.5795,-1.5792,-1.5798,-1.5706,-1.5688,-1.5795,-1.5795,-1.5795,-1.5795,-1.5795,-1.5795,-1.5203,-1.5275,-1.5288,-1.5377,-1.5403,-1.5466,-1.5492,-1.5528,-1.556,-1.5637,-1.5683,-1.5704,-1.574,-1.5799,-1.585,-1.5858,-1.5878,-1.5895,-1.5902,-1.5815,-1.5804,-1.5793,-1.5777,-1.59,-1.59,-1.5989,-1.5989,-1.599]},{"header":{"parameterUnit":"m.s-1","parameterCategory":1,"la1":30.2991,"la2":30.254,"lo1":-89.0895,"lo2":-89.0444,"dy":0.0017,"dx":0.0017,"nx":28,"ny":28,"refTime":"2025-08-20T09:00:00:Z","depth":0,"parameterNumber":3,"parameterNumberName":"V-component_of_WINDS"},"data":[0,0,0,0,0,0,0,0,0,0,0,0,0,0,0,0,0,0,0,0,0,0,0,0,0,0,0,0,0,0,0,0,0,0,0,0,0,0,0,0,0,0,0,0,0,0,0,0,0,0,0,0,0,0,0,0,0,0,0.1686,0.1685,0,0.1632,0.1632,0.1631,0.1644,0.1645,0.1646,0.1647,0.1592,0.159,0.1587,0,0,0,0,0,0,0,0,0,0,0,0,0,0.1798,0.1795,0.1686,0.1685,0.1684,0.1633,0.1632,0.1631,0.1644,0.1645,0.1647,0.1648,0.1593,0.159,0.1587,0,0,0,0,0,0,0,0,0,0,0,0,0,0.1747,0.1795,0.1686,0.1685,0.1684,0.1633,0.1632,0.1631,0.1644,0.1646,0.1647,0.1649,0.1594,0.159,0.1587,0.1533,0,0,0.1576,0.1574,0,0,0,0,0,0,0,0,0.175,0.1743,0.1685,0.1685,0.1684,0.1647,0.1651,0.1598,0.1644,0.1659,0.1647,0.1649,0.1609,0.1604,0.1591,0.1531,0.1528,0.1575,0.1573,0.1572,0.1571,0,0,0,0,0,0,0,0.1753,0.1745,0.1665,0.1685,0.1684,0.1686,0.1681,0.1641,0.1626,0.1658,0.1659,0.1652,0.1609,0.1594,0.159,0.1527,0.1575,0.1572,0.157,0.1569,0.142,0.1418,0,0,0,0,0,0,0.1758,0.1748,0.1666,0.1663,0.1721,0.1683,0.1677,0.1657,0.1626,0.1623,0.1651,0.1653,0.16,0.1594,0.1588,0.1522,0.1572,0.1568,0.1566,0.1421,0.1419,0.1417,0,0,0,0,0,0,0.176,0.175,0.1668,0.1706,0.1696,0.168,0.1657,0.1655,0.1641,0.1621,0.1619,0.1639,0.1601,0.1593,0.1546,0.152,0.1567,0.1563,0.1423,0.1421,0.1418,0.1391,0,0,0,0,0,0,0.1763,0.1751,0.1731,0.1705,0.1694,0.1628,0.1655,0.1653,0.1634,0.1637,0.1609,0.1606,0.1601,0.1552,0.1543,0.1516,0.156,0.1426,0.1422,0.1419,0.1394,0.1387,0.1382,0,0,0,0,0,0.1767,0.1725,0.173,0.172,0.1668,0.1627,0.162,0.1615,0.1632,0.1611,0.1599,0.1607,0.1525,0.1547,0.1537,0.1509,0.1427,0.1423,0.1419,0.1396,0.1389,0.1382,0,0,0,0,0,0,0.1748,0.1722,0.1726,0.1675,0.1653,0.1629,0.1602,0.1607,0.158,0.1583,0.1579,0.1573,0.1525,0.1512,0.1537,0.1455,0.1478,0.1472,0.1464,0.1457,0.1451,0.1454,0.1557,0,0,0,0,0,0.1737,0.1706,0.1685,0.1642,0.1631,0.1618,0.16,0.1599,0.1576,0.1566,0.1551,0.1528,0.1497,0.1476,0.1447,0.1392,0.1386,0.1368,0.1362,0.1357,0.1352,0.1321,0.1312,0.1404,0.1404,0.1404,0,0,0.1716,0.1698,0.1678,0.1637,0.162,0.1588,0.161,0.1575,0.1551,0.1561,0.1516,0.1504,0.1478,0.1427,0.1404,0.1415,0.1325,0.1352,0.1349,0.1345,0.1316,0.1307,0.13,0.1402,0.1402,0.1402,0,0,0.1659,0.1643,0.1605,0.1587,0.1561,0.1553,0.1543,0.1519,0.1511,0.1466,0.1472,0.1443,0.139,0.1371,0.1355,0.1291,0.1297,0.1282,0.125,0.122,0.1213,0.1207,0.1183,0.1175,0.1276,0.1276,0.1276,0,0.1635,0.1587,0.1584,0.1548,0.1529,0.1538,0.1498,0.1481,0.1446,0.1433,0.1447,0.138,0.1363,0.1307,0.1292,0.1278,0.1267,0.1284,0.1215,0.1208,0.1202,0.1179,0.117,0.1275,0.1275,0.1275,0.1275,0,0.1559,0.1525,0.1497,0.1463,0.1442,0.1404,0.1395,0.1374,0.1374,0.1365,0.1318,0.1299,0.1265,0.1252,0.1252,0.1196,0.1204,0.1216,0.1239,0.1191,0.117,0.1161,0.1272,0.1273,0.1273,0.1274,0,0,0.1487,0.1453,0.1442,0.1427,0.1398,0.1372,0.1335,0.1302,0.1283,0.1259,0.1227,0.1182,0.1193,0.1174,0.1172,0.1147,0.1096,0.1162,0.1161,0.1149,0.1032,0.1022,0.1012,0.1101,0.1099,0.1098,0.1034,0,0.1428,0.1362,0.1358,0.1298,0.1267,0.1274,0.1241,0.122,0.1211,0.1182,0.1172,0.1139,0.1157,0.1145,0.112,0.1108,0.1072,0.1112,0.107,0.1069,0.1075,0.1001,0.099,0.0931,0.1025,0.1024,0.1023,0,0.1349,0.1322,0.1259,0.1235,0.1221,0.1192,0.1161,0.1134,0.111,0.1105,0.1084,0.1086,0.1047,0.1073,0.1019,0.1047,0.1029,0.1021,0.1018,0.1013,0.1042,0.0993,0.0912,0.0903,0.101,0.1011,0.1012,0,0.1302,0.125,0.1206,0.1192,0.1163,0.1142,0.1129,0.1107,0.1087,0.106,0.1047,0.1016,0.0999,0.0975,0.0969,0.0988,0.0915,0.094,0.0908,0.0908,0.0892,0.0892,0.0806,0.0882,0.0883,0.0883,0.0883,0,0.1235,0.1195,0.1184,0.1156,0.1113,0.1109,0.1066,0.1054,0.1034,0.1004,0.1009,0.098,0.0974,0.0944,0.0939,0.0895,0.0887,0.0882,0.088,0.088,0.0881,0.0868,0.0871,0.088,0.0881,0.0881,0.0882,0,0.1174,0.1165,0.1117,0.1093,0.1086,0.1055,0.1034,0.1008,0.0999,0.0961,0.0952,0.0938,0.0903,0.0894,0.0853,0.085,0.0797,0.08,0.0805,0.0805,0.0773,0.0776,0.0674,0.066,0.0747,0.0746,0.0745,0,0.1131,0.1101,0.1074,0.1054,0.104,0.1008,0.0988,0.0983,0.0962,0.0933,0.0909,0.0875,0.0848,0.0792,0.0778,0.0746,0.0748,0.0715,0.0743,0.0744,0.0746,0.0747,0.0744,0.0709,0.0708,0.0707,0.0707,0,0.1055,0.1052,0.1023,0.0992,0.0968,0.0944,0.092,0.0904,0.0895,0.0871,0.0836,0.0814,0.0772,0.0738,0.0706,0.0692,0.0697,0.0698,0.0689,0.0688,0.0691,0.0688,0.0789,0.07,0.0701,0.0701,0.0701,0.0702,0.1001,0.0975,0.0952,0.0919,0.0901,0.0878,0.0852,0.084,0.081,0.0775,0.0775,0.0736,0.0712,0.067,0.0654,0.0624,0.0634,0.0621,0.0617,0.0614,0.0611,0.0697,0.0618,0.0618,0.0619,0.0619,0.0619,0,0.0925,0.091,0.088,0.0847,0.0821,0.0829,0.0804,0.0781,0.0747,0.0725,0.0697,0.0656,0.0623,0.0607,0.0574,0.0553,0.0554,0.0544,0.0545,0.0541,0.0604,0.0615,0.0543,0.0543,0.0543,0.0543,0.0543,0.0543,0.0882,0.0837,0.0831,0.0777,0.0763,0.0725,0.0709,0.0689,0.0671,0.0625,0.0598,0.0587,0.0567,0.0533,0.0503,0.0499,0.0486,0.0474,0.0471,0.053,0.0537,0.0545,0.0554,0.0472,0.0472,0.0411,0.0411,0.041]}]]